When you browse on this site, cookies collect data to enhance your experience and personalize the content and advertising you see.
Visit our Privacy Policy to learn more. By continuing to use the site, you agree to this use of cookies and data.

Hourly Weather Labutino

Today, 14 July, Tuesday

Time Temperature Precipitation Wind Pressure Humidity
00:00 +17°C° 0 mm 3 mps 743 mmHg 92%
01:00 +17°C° 0 mm 3 mps 743 mmHg 91%
02:00 +16°C° 0 mm 3 mps 743 mmHg 91%
03:00 +17°C° 0 mm 3 mps 743 mmHg 94%
04:00 +17°C° 0 mm 3 mps 743 mmHg 92%
05:00 +17°C° 0 mm 3 mps 743 mmHg 91%
06:00 +17°C° 0 mm 3 mps 742 mmHg 90%
07:00 +17°C° 0.3 mm 3 mps 742 mmHg 90%
08:00 +17°C° 0.3 mm 4 mps 742 mmHg 90%
09:00 +17°C° 0 mm 4 mps 743 mmHg 89%
10:00 +17°C° 0 mm 5 mps 743 mmHg 85%
11:00 +19°C° 0 mm 5 mps 743 mmHg 80%
12:00 +20°C° 0 mm 5 mps 742 mmHg 76%
13:00 +20°C° 0 mm 6 mps 742 mmHg 76%
14:00 +20°C° 0 mm 7 mps 741 mmHg 76%
15:00 +20°C° 0 mm 7 mps 741 mmHg 76%
16:00 +18°C° 1.9 mm 8 mps 740 mmHg 80%
17:00 +18°C° 1.9 mm 8 mps 739 mmHg 84%
18:00 +18°C° 1.9 mm 8 mps 738 mmHg 88%
19:00 +18°C° 3.5 mm 8 mps 737 mmHg 90%
20:00 +18°C° 3.5 mm 8 mps 736 mmHg 92%
21:00 +18°C° 3.5 mm 8 mps 736 mmHg 94%
22:00 +19°C° 1.5 mm 6 mps 735 mmHg 95%
23:00 +19°C° 1.5 mm 5 mps 735 mmHg 95%

Tomorrow, 15 July, Wednesday

Time Temperature Precipitation Wind Pressure Humidity
00:00 +20°C° 1.5 mm 4 mps 734 mmHg 96%
01:00 +19°C° 0.2 mm 4 mps 734 mmHg 94%
02:00 +18°C° 0.2 mm 4 mps 734 mmHg 93%
03:00 +16°C° 0.2 mm 5 mps 734 mmHg 92%
04:00 +16°C° 0 mm 5 mps 734 mmHg 91%
05:00 +16°C° 0 mm 5 mps 734 mmHg 90%
06:00 +15°C° 0 mm 5 mps 734 mmHg 89%
07:00 +15°C° 0 mm 5 mps 735 mmHg 88%
08:00 +16°C° 0 mm 5 mps 735 mmHg 86%
09:00 +16°C° 0 mm 5 mps 735 mmHg 85%
10:00 +16°C° 0 mm 5 mps 736 mmHg 82%
11:00 +17°C° 0 mm 5 mps 736 mmHg 80%
12:00 +17°C° 0 mm 6 mps 736 mmHg 77%
13:00 +17°C° 0.5 mm 5 mps 736 mmHg 80%
14:00 +16°C° 0.5 mm 5 mps 736 mmHg 83%
15:00 +17°C° 0.5 mm 4 mps 736 mmHg 86%
16:00 +15°C° 0.4 mm 4 mps 736 mmHg 85%
17:00 +15°C° 0.4 mm 4 mps 736 mmHg 85%
18:00 +14°C° 0.4 mm 4 mps 736 mmHg 84%
19:00 +14°C° 0.3 mm 4 mps 736 mmHg 85%
20:00 +14°C° 0.3 mm 3 mps 736 mmHg 86%
21:00 +13°C° 0.3 mm 3 mps 737 mmHg 86%
22:00 +13°C° 0.1 mm 3 mps 736 mmHg 88%
23:00 +14°C° 0.1 mm 2 mps 736 mmHg 89%

Day after tomorrow, 16 July, Thursday

Time Temperature Precipitation Wind Pressure Humidity
00:00 +13°C° 0.1 mm 2 mps 736 mmHg 90%
01:00 +13°C° 0.2 mm 2 mps 736 mmHg 91%
02:00 +13°C° 0.2 mm 2 mps 736 mmHg 91%
03:00 +13°C° 0.2 mm 2 mps 736 mmHg 91%
04:00 +13°C° 0.1 mm 2 mps 736 mmHg 91%
05:00 +13°C° 0.1 mm 1 mps 736 mmHg 91%
06:00 +14°C° 0.1 mm 1 mps 736 mmHg 91%
07:00 +14°C° 0.5 mm 2 mps 737 mmHg 92%
08:00 +14°C° 0.5 mm 2 mps 737 mmHg 93%
09:00 +13°C° 0.5 mm 3 mps 737 mmHg 94%
10:00 +13°C° 0.2 mm 3 mps 738 mmHg 93%
11:00 +14°C° 0.2 mm 3 mps 738 mmHg 92%
12:00 +14°C° 0.2 mm 3 mps 739 mmHg 91%
13:00 +14°C° 0.2 mm 3 mps 739 mmHg 89%
14:00 +16°C° 0.2 mm 3 mps 739 mmHg 87%
15:00 +16°C° 0.2 mm 3 mps 740 mmHg 85%
16:00 +17°C° 0.1 mm 3 mps 740 mmHg 85%
17:00 +17°C° 0.1 mm 3 mps 740 mmHg 85%
18:00 +17°C° 0.1 mm 4 mps 740 mmHg 84%
19:00 +16°C° 0 mm 3 mps 741 mmHg 87%
20:00 +16°C° 0 mm 3 mps 741 mmHg 90%
21:00 +14°C° 0 mm 3 mps 741 mmHg 92%
22:00 +14°C° 0 mm 3 mps 741 mmHg 93%
23:00 +14°C° 0 mm 3 mps 741 mmHg 94%

17 July, Friday

Time Temperature Precipitation Wind Pressure Humidity
00:00 +13°C° 0 mm 3 mps 741 mmHg 95%
01:00 +14°C° 0 mm 3 mps 741 mmHg 94%
02:00 +14°C° 0 mm 3 mps 742 mmHg 94%
03:00 +14°C° 0 mm 3 mps 742 mmHg 93%
04:00 +14°C° 0 mm 3 mps 742 mmHg 93%
05:00 +14°C° 0 mm 3 mps 742 mmHg 93%
06:00 +14°C° 0 mm 3 mps 742 mmHg 93%
07:00 +14°C° 0 mm 3 mps 742 mmHg 90%
08:00 +16°C° 0 mm 3 mps 743 mmHg 87%
09:00 +17°C° 0 mm 3 mps 743 mmHg 85%
10:00 +17°C° 0.1 mm 3 mps 743 mmHg 81%
11:00 +18°C° 0.1 mm 4 mps 743 mmHg 77%
12:00 +19°C° 0.1 mm 4 mps 744 mmHg 73%
13:00 +19°C° 0 mm 4 mps 744 mmHg 70%
14:00 +20°C° 0 mm 4 mps 744 mmHg 67%
15:00 +21°C° 0 mm 4 mps 744 mmHg 64%
16:00 +21°C° 0.1 mm 4 mps 744 mmHg 66%
17:00 +21°C° 0.1 mm 3 mps 744 mmHg 67%
18:00 +21°C° 0.1 mm 3 mps 744 mmHg 69%
19:00 +19°C° 0.1 mm 3 mps 744 mmHg 74%
20:00 +18°C° 0.1 mm 2 mps 745 mmHg 78%
21:00 +17°C° 0.1 mm 2 mps 745 mmHg 82%
22:00 +16°C° 0 mm 2 mps 745 mmHg 84%
23:00 +16°C° 0 mm 2 mps 745 mmHg 86%

18 July, Saturday

Time Temperature Precipitation Wind Pressure Humidity
00:00 +15°C° 0 mm 2 mps 746 mmHg 88%
01:00 +14°C° 0 mm 2 mps 746 mmHg 89%
02:00 +14°C° 0 mm 2 mps 746 mmHg 90%
03:00 +14°C° 0 mm 2 mps 746 mmHg 91%
04:00 +14°C° 0 mm 2 mps 747 mmHg 90%
05:00 +14°C° 0 mm 2 mps 747 mmHg 89%
06:00 +14°C° 0 mm 2 mps 747 mmHg 88%
07:00 +16°C° 0 mm 2 mps 747 mmHg 83%
08:00 +17°C° 0 mm 3 mps 748 mmHg 77%
09:00 +19°C° 0 mm 3 mps 748 mmHg 72%
10:00 +20°C° 0 mm 3 mps 748 mmHg 68%
11:00 +21°C° 0 mm 3 mps 748 mmHg 64%
12:00 +22°C° 0 mm 3 mps 748 mmHg 60%
13:00 +22°C° 0.1 mm 3 mps 748 mmHg 59%
14:00 +24°C° 0.1 mm 3 mps 748 mmHg 57%
15:00 +24°C° 0.1 mm 3 mps 748 mmHg 56%
16:00 +24°C° 0.1 mm 3 mps 748 mmHg 59%
17:00 +24°C° 0.1 mm 3 mps 748 mmHg 62%
18:00 +22°C° 0.1 mm 3 mps 748 mmHg 65%
19:00 +21°C° 0 mm 3 mps 748 mmHg 66%
20:00 +20°C° 0 mm 2 mps 748 mmHg 67%
21:00 +18°C° 0 mm 2 mps 748 mmHg 68%
22:00 +18°C° 0 mm 2 mps 748 mmHg 69%
23:00 +17°C° 0 mm 2 mps 748 mmHg 69%

19 July, Sunday

Time Temperature Precipitation Wind Pressure Humidity
00:00 +16°C° 0 mm 2 mps 749 mmHg 69%
01:00 +16°C° 0 mm 2 mps 749 mmHg 72%
02:00 +15°C° 0 mm 2 mps 749 mmHg 76%
03:00 +15°C° 0 mm 2 mps 749 mmHg 79%
04:00 +15°C° 0 mm 2 mps 749 mmHg 80%
05:00 +15°C° 0 mm 2 mps 749 mmHg 80%
06:00 +16°C° 0 mm 2 mps 749 mmHg 81%
07:00 +17°C° 0 mm 2 mps 749 mmHg 75%
08:00 +19°C° 0 mm 2 mps 749 mmHg 70%
09:00 +21°C° 0 mm 3 mps 749 mmHg 64%
10:00 +21°C° 0 mm 3 mps 748 mmHg 59%
11:00 +22°C° 0 mm 3 mps 748 mmHg 55%
12:00 +24°C° 0 mm 3 mps 748 mmHg 50%
13:00 +25°C° 0 mm 4 mps 748 mmHg 50%
14:00 +25°C° 0 mm 4 mps 748 mmHg 49%
15:00 +25°C° 0 mm 4 mps 747 mmHg 49%
16:00 +25°C° 0 mm 4 mps 747 mmHg 51%
17:00 +25°C° 0 mm 4 mps 747 mmHg 53%
18:00 +24°C° 0 mm 3 mps 747 mmHg 56%
19:00 +22°C° 0 mm 3 mps 747 mmHg 59%
20:00 +20°C° 0 mm 3 mps 746 mmHg 63%
21:00 +18°C° 0 mm 3 mps 746 mmHg 66%
22:00 +18°C° 0 mm 3 mps 746 mmHg 69%
23:00 +17°C° 0 mm 2 mps 746 mmHg 72%
Show more